User: anonymous   Login
Location: Bonny Doon Airfield
(37.0704°N, 122.1252°W)
Time: 19:58:05
(UTC-08:00)
Language:

BREEZE M DEB (TANK) - Orbit

View from above orbital plane
View from above orbital plane
View from above satellite
View from above satellite

Ground track
Ground track

The orbit data is extracted from the following two-line orbital elements,

1 33437U 08057B   17324.55989188 +.00001196 +00000-0 +37065-3 0  9991
2 33437 049.5660 111.7864 4980683 189.7366 155.1841 05.60672880182613
Epoch (UTC): 20 November 2017 13:26:14
Eccentricity: 0.4980683
inclination: 49.5660°
perigee height: 340 km
apogee height: 13672 km
right ascension of ascending node: 111.7864°
argument of perigee: 189.7366°
revolutions per day: 5.60672880
mean anomaly at epoch: 155.1841°
orbit number at epoch: 18261

The dashed part of the orbit path shows where the satellite is in the earth's shadow,  

DLR